Погода в Бетьках

Россия / Республика Татарстан     55°31′03″N   50°10′58″E
темп.,
°C
ветер,
м/с
пор.,
м/с
влажн.,
%
обл.,
%
осадки,
мм/ч
давл.,
гПа
погр.,
м
8 марта, пн
пн800:00−8ю81494100 1.4 999742
03:00−6ю81592100 2.3 995705
06:00−5ю81595100 1.4 992837
09:00−5зюз111788100 1.9 993991
12:00−6зюз8137733 0.0 996877
15:00−5юз7118251 0.1 999896
18:00−8юз488895 0.0 1000135
21:00−9сз228898 0.0 100021
9 марта, вт
вт900:00−12зсз3491100 0.1 100150
03:00−14зсз459563 0.1 100561
06:00−16зсз34960 0.0 100732
09:00−14зюз249518 0.0 1009136
12:00−11зюз229066 0.0 1010242
15:00−11зюз229383 0.0 1010194
18:00−13зюз1197100 0.0 101020
21:00−14с2296100 0.1 101124
10 марта, ср
ср1000:00−15с359597 0.1 101193
03:00−17с599597 0.1 1011175
06:00−18ссз61193100 0.0 1013271
09:00−19с6109299 0.1 1014365
12:00−19ссз6992100 0.0 1016394
15:00−19ссз61088100 0.0 1017445
18:00−22ссз4118975 0.0 1019213
21:00−24ссз499244 0.0 1021149
11 марта, чт
чт1100:00−26ссз45950 0.0 102179
03:00−26сз45970 0.0 102268
06:00−26зсз45970 0.0 102277
09:00−21зсз589433 0.0 1022281
12:00−17зсз579199 0.1 1022440
15:00−15зсз479299 0.1 1022439
18:00−16з4695100 0.0 102385
21:00−16з349797 0.1 102560
12 марта, пт
пт1200:00−17зсз349686 0.0 102635
03:00−17зсз349443 0.0 102725
06:00−18зсз33920 0.0 102922
09:00−15зсз34910 0.0 1030135
12:00−12з23880 0.0 1030239
15:00−11юз35923 0.0 1030183
18:00−15юз33930 0.0 103021
21:00−17юз33940 0.0 103021